[[{"header":{"parameterUnit":"m.s-1","parameterCategory":1,"la1":30.2991,"la2":30.254,"lo1":-89.0895,"lo2":-89.0444,"dy":0.0017,"dx":0.0017,"nx":28,"ny":28,"refTime":"2024-02-11T03:00:00:Z","depth":0,"parameterNumber":2,"parameterNumberName":"U-component_of_WINDS"},"data":[0,0,0,0,0,0,0,0,0,0,0,0,0,0,0,0,0,0,0,0,0,0,0,0,0,0,0,0,0,0,0,0,0,0,0,0,0,0,0,0,0,0,0,0,0,0,0,0,0,0,0,0,0,0,0,0,0,0,7.3031,7.303,0,7.2952,7.2952,7.2951,7.2824,7.2822,7.2819,7.2817,7.2737,7.2737,7.2737,0,0,0,0,0,0,0,0,0,0,0,0,0,7.3072,7.3072,7.3031,7.303,7.3029,7.2953,7.2952,7.295,7.2825,7.2822,7.2819,7.2816,7.2737,7.2737,7.2737,0,0,0,0,0,0,0,0,0,0,0,0,0,7.303,7.3072,7.3031,7.2957,7.2949,7.2953,7.2951,7.295,7.2825,7.2822,7.2818,7.2815,7.2737,7.2737,7.2737,7.2807,0,0,7.2738,7.2738,0,0,0,0,0,0,0,0,7.3033,7.3029,7.2969,7.2962,7.2953,7.2894,7.2937,7.2902,7.2826,7.2872,7.2817,7.2813,7.2793,7.2788,7.2781,7.2803,7.28,7.2738,7.2738,7.2738,7.2738,0,0,0,0,0,0,0,7.3036,7.3032,7.3,7.2968,7.2959,7.2928,7.2918,7.293,7.2853,7.2868,7.2859,7.2851,7.2788,7.2781,7.2778,7.2799,7.2738,7.2738,7.2738,7.2738,7.2876,7.2879,0,0,0,0,0,0,7.305,7.3035,7.3002,7.2997,7.2985,7.293,7.2919,7.2917,7.2852,7.2839,7.2854,7.2845,7.2783,7.2778,7.2775,7.2852,7.2738,7.2738,7.2738,7.2872,7.2876,7.288,0,0,0,0,0,0,7.3051,7.3048,7.3005,7.3013,7.3006,7.2933,7.2932,7.2917,7.291,7.2842,7.2828,7.2861,7.278,7.2775,7.28,7.2847,7.2738,7.2738,7.2868,7.2873,7.2878,7.3007,0,0,0,0,0,0,7.3053,7.3049,7.3074,7.3015,7.3006,7.3032,7.2935,7.2918,7.2911,7.2899,7.2845,7.2833,7.2777,7.2801,7.28,7.2845,7.2738,7.2863,7.287,7.2877,7.2998,7.3016,7.3032,0,0,0,0,0,7.3055,7.3114,7.3076,7.3073,7.3036,7.3035,7.303,7.2964,7.2915,7.294,7.2896,7.2834,7.2843,7.2805,7.2803,7.2849,7.286,7.2868,7.2876,7.2991,7.3013,7.3031,0,0,0,0,0,0,7.318,7.3104,7.3062,7.3104,7.3077,7.3014,7.3043,7.2989,7.2976,7.2965,7.2885,7.2874,7.291,7.2882,7.284,7.2913,7.2842,7.285,7.293,7.295,7.2966,7.2972,7.2738,0,0,0,0,0,7.3213,7.3218,7.3152,7.3195,7.3184,7.3116,7.3113,7.3066,7.3034,7.3022,7.298,7.2953,7.2949,7.2948,7.2941,7.2995,7.2981,7.3026,7.3042,7.3056,7.3064,7.309,7.3109,7.2907,7.2907,7.2907,0,0,7.3279,7.3239,7.3247,7.3219,7.3192,7.32,7.3107,7.3119,7.3124,7.3024,7.3045,7.3014,7.2978,7.3018,7.3034,7.2996,7.3117,7.3067,7.3079,7.3078,7.3101,7.312,7.3137,7.2913,7.2912,7.2911,0,0,7.3405,7.3375,7.3408,7.3384,7.3345,7.33,7.3309,7.3254,7.3229,7.325,7.3175,7.3181,7.3176,7.3153,7.3142,7.3262,7.3204,7.3262,7.3349,7.3375,7.3391,7.3405,7.3447,7.3463,7.327,7.3271,7.3271,0,7.3493,7.3501,7.3431,7.3448,7.3438,7.3349,7.3382,7.3362,7.3324,7.3319,7.3278,7.3271,7.324,7.3274,7.3304,7.3297,7.3304,7.3267,7.3395,7.3408,7.3419,7.3459,7.3475,7.3278,7.3277,7.3276,7.3276,0,7.3611,7.3619,7.365,7.3615,7.3609,7.3634,7.3568,7.3571,7.3525,7.3484,7.3507,7.3468,7.3451,7.3456,7.3411,7.3484,7.3462,7.3409,7.3335,7.3447,7.3483,7.3497,7.3288,7.3286,7.3283,7.3282,0,0,7.3811,7.3739,7.3751,7.3735,7.3687,7.3691,7.3713,7.3697,7.3701,7.3678,7.3694,7.3694,7.3645,7.3632,7.3583,7.3608,7.3705,7.3551,7.3549,7.358,7.3783,7.3822,7.384,7.3668,7.367,7.3672,7.3785,0,7.3925,7.3957,7.3896,7.3943,7.3949,7.3866,7.3885,7.3858,7.3822,7.3822,7.3783,7.3783,7.3719,7.3711,7.3731,7.3689,7.3744,7.368,7.3681,7.3682,7.369,7.3859,7.3899,7.4008,7.3799,7.3801,7.3803,0,7.4062,7.4047,7.4095,7.4045,7.4045,7.4063,7.4045,7.4046,7.4015,7.3987,7.3974,7.3917,7.3936,7.3867,7.3891,7.3849,7.3846,7.3826,7.3828,7.3824,7.3748,7.3858,7.4041,7.4056,7.3824,7.3823,7.3821,0,7.4202,7.4194,7.4221,7.421,7.4153,7.4167,7.4145,7.411,7.4105,7.4089,7.4085,7.4072,7.4064,7.4056,7.3998,7.3953,7.4029,7.3955,7.4006,7.4007,7.4023,7.4023,7.4207,7.4026,7.4025,7.4025,7.4025,0,7.4335,7.4367,7.4283,7.43,7.4333,7.4264,7.43,7.4269,7.4239,7.4248,7.4177,7.4187,7.4111,7.4113,7.4068,7.4095,7.4092,7.407,7.4057,7.4075,7.4078,7.407,7.4061,7.4029,7.4028,7.4027,7.4027,0,7.4496,7.444,7.4464,7.441,7.4397,7.4424,7.4377,7.439,7.4351,7.4364,7.4363,7.4301,7.43,7.4242,7.423,7.4199,7.4244,7.4219,7.4255,7.4246,7.4299,7.4295,7.4483,7.4504,7.4312,7.4314,7.4316,0,7.4583,7.4606,7.4554,7.4555,7.4536,7.4539,7.4534,7.4467,7.4465,7.4432,7.445,7.4443,7.4434,7.4437,7.4391,7.4381,7.4354,7.4421,7.4352,7.4369,7.4353,7.4351,7.4353,7.4435,7.4437,7.4439,7.4441,0,7.4744,7.4716,7.4711,7.4697,7.4693,7.4679,7.4661,7.4666,7.4594,7.4595,7.4593,7.4587,7.4574,7.4569,7.4551,7.4527,7.4472,7.4464,7.4474,7.4492,7.4511,7.45,7.4293,7.4459,7.4457,7.4456,7.4455,7.4454,7.4869,7.4885,7.4852,7.4849,7.4828,7.4813,7.4823,7.4786,7.4783,7.4768,7.473,7.4735,7.4704,7.4674,7.4656,7.4659,7.4625,7.4641,7.4645,7.4649,7.4659,7.4513,7.4656,7.4655,7.4655,7.4654,7.4654,0,7.5024,7.4999,7.4998,7.4974,7.4973,7.4922,7.49,7.4901,7.4907,7.4883,7.4876,7.4875,7.487,7.4825,7.4815,7.4826,7.48,7.4825,7.4822,7.4818,7.4691,7.4681,7.4846,7.4846,7.4846,7.4846,7.4846,7.4846,7.5105,7.513,7.5099,7.5113,7.5088,7.5092,7.5083,7.5069,7.505,7.5052,7.5048,7.5019,7.4986,7.4973,7.4967,7.4953,7.4952,7.4985,7.4964,7.4845,7.4827,7.4809,7.48,7.4986,7.4987,7.509,7.5091,7.5092]},{"header":{"parameterUnit":"m.s-1","parameterCategory":1,"la1":30.2991,"la2":30.254,"lo1":-89.0895,"lo2":-89.0444,"dy":0.0017,"dx":0.0017,"nx":28,"ny":28,"refTime":"2024-02-11T03:00:00:Z","depth":0,"parameterNumber":3,"parameterNumberName":"V-component_of_WINDS"},"data":[0,0,0,0,0,0,0,0,0,0,0,0,0,0,0,0,0,0,0,0,0,0,0,0,0,0,0,0,0,0,0,0,0,0,0,0,0,0,0,0,0,0,0,0,0,0,0,0,0,0,0,0,0,0,0,0,0,0,2.3142,2.3144,0,2.3307,2.3308,2.331,2.3383,2.3383,2.3383,2.3382,2.3548,2.3553,2.3557,0,0,0,0,0,0,0,0,0,0,0,0,0,2.2887,2.2891,2.3142,2.3144,2.3146,2.3306,2.3309,2.3311,2.3383,2.3383,2.3382,2.3382,2.3547,2.3552,2.3558,0,0,0,0,0,0,0,0,0,0,0,0,0,2.3019,2.2893,2.3142,2.3202,2.3209,2.3306,2.3309,2.3311,2.3383,2.3383,2.3382,2.3382,2.3545,2.3552,2.3559,2.3608,0,0,2.358,2.3583,0,0,0,0,0,0,0,0,2.3011,2.3028,2.3191,2.3198,2.3206,2.3324,2.328,2.3411,2.3383,2.3317,2.3382,2.3382,2.3474,2.3487,2.3518,2.3616,2.3623,2.358,2.3585,2.3588,2.359,0,0,0,0,0,0,0,2.3002,2.3022,2.3207,2.3193,2.3202,2.3219,2.3237,2.3305,2.3395,2.3322,2.3328,2.3347,2.3478,2.3511,2.3522,2.3625,2.358,2.3586,2.3591,2.3593,2.3769,2.377,0,0,0,0,0,0,2.2984,2.3013,2.3202,2.3212,2.3106,2.3224,2.3244,2.3286,2.3395,2.3411,2.3347,2.3349,2.35,2.3514,2.3529,2.3593,2.3588,2.3594,2.3598,2.3769,2.3769,2.377,0,0,0,0,0,0,2.2978,2.3,2.3195,2.3114,2.3141,2.3229,2.3275,2.329,2.3323,2.3413,2.3429,2.3365,2.35,2.3519,2.3587,2.36,2.3597,2.3603,2.3768,2.3769,2.377,2.3721,0,0,0,0,0,0,2.297,2.2997,2.3018,2.3114,2.3145,2.3252,2.3276,2.3293,2.3335,2.334,2.3434,2.3449,2.3501,2.3577,2.3594,2.3609,2.3609,2.3768,2.3769,2.377,2.3722,2.372,2.3719,0,0,0,0,0,2.2961,2.2998,2.3019,2.3041,2.3173,2.3253,2.327,2.333,2.3336,2.3357,2.3414,2.3446,2.3595,2.3583,2.3604,2.362,2.3767,2.3768,2.3769,2.3723,2.3721,2.3719,0,0,0,0,0,0,2.29,2.3012,2.3036,2.3106,2.3169,2.3265,2.3294,2.3326,2.3389,2.3391,2.3461,2.3482,2.3544,2.3589,2.3574,2.3673,2.3684,2.3689,2.3641,2.364,2.3638,2.3626,2.3615,0,0,0,0,0,2.2895,2.2952,2.3046,2.3098,2.3129,2.3205,2.3242,2.3283,2.3351,2.3379,2.3441,2.3505,2.3567,2.3606,2.3667,2.3729,2.3749,2.375,2.3748,2.3746,2.375,2.3785,2.3786,2.3774,2.3774,2.3774,0,0,2.2885,2.2953,2.2984,2.3087,2.3142,2.3198,2.3228,2.3286,2.3328,2.3387,2.3456,2.3503,2.358,2.3645,2.3676,2.3684,2.3758,2.3748,2.3746,2.3751,2.3786,2.3787,2.3788,2.3775,2.3774,2.3774,0,0,2.2895,2.2952,2.3002,2.3055,2.3137,2.3187,2.3198,2.3289,2.3323,2.3393,2.3438,2.3488,2.3592,2.3645,2.3685,2.3712,2.3743,2.3729,2.3721,2.3753,2.3754,2.3755,2.3764,2.3767,2.3733,2.3733,2.3733,0,2.2872,2.296,2.3023,2.3079,2.3122,2.3178,2.3227,2.3275,2.3372,2.34,2.3407,2.3538,2.3594,2.3671,2.3677,2.3708,2.3722,2.372,2.3749,2.3751,2.3753,2.3762,2.3766,2.3731,2.3731,2.3731,2.3731,0,2.2927,2.2987,2.3016,2.3109,2.3155,2.3207,2.3277,2.3316,2.3351,2.34,2.3469,2.3537,2.3613,2.3633,2.3669,2.3715,2.3717,2.3736,2.3748,2.3751,2.3761,2.3765,2.3727,2.3728,2.3729,2.3729,0,0,2.2906,2.3031,2.3041,2.3083,2.3176,2.3222,2.3276,2.335,2.3382,2.3446,2.3492,2.3577,2.3595,2.364,2.3681,2.371,2.3725,2.3725,2.3728,2.3722,2.3779,2.3765,2.3769,2.3746,2.3747,2.3748,2.3773,0,2.2929,2.3029,2.3086,2.3162,2.3217,2.3269,2.3316,2.3376,2.3423,2.3475,2.3526,2.3585,2.3604,2.3632,2.3662,2.3717,2.3738,2.3716,2.3789,2.3791,2.3769,2.3774,2.376,2.3781,2.3777,2.3778,2.3779,0,2.297,2.3033,2.3114,2.3199,2.3225,2.3266,2.3337,2.3387,2.3456,2.3488,2.3537,2.3578,2.3634,2.3641,2.372,2.3703,2.3736,2.3767,2.3769,2.3779,2.3785,2.3784,2.3789,2.3792,2.3785,2.3785,2.3784,0,2.2945,2.3051,2.3113,2.3147,2.3248,2.3275,2.3318,2.3388,2.3428,2.349,2.3516,2.3583,2.362,2.367,2.3727,2.3727,2.3799,2.3811,2.3826,2.3825,2.3841,2.3839,2.3851,2.386,2.386,2.386,2.386,0,2.2965,2.3013,2.3103,2.3142,2.3196,2.3259,2.3311,2.3358,2.3418,2.3466,2.3514,2.3557,2.3629,2.368,2.3725,2.3783,2.3799,2.3825,2.3836,2.3821,2.3818,2.3844,2.3845,2.3861,2.3861,2.3861,2.3861,0,2.2948,2.3011,2.3082,2.3171,2.3194,2.323,2.3306,2.3344,2.3392,2.3451,2.3468,2.3543,2.3606,2.3667,2.3751,2.3781,2.3838,2.3853,2.3815,2.3822,2.3833,2.3831,2.3863,2.387,2.3874,2.3874,2.3874,0,2.2957,2.2995,2.3088,2.3124,2.3166,2.3222,2.3263,2.3326,2.3367,2.3447,2.3475,2.3542,2.3598,2.3695,2.3757,2.3821,2.3838,2.3844,2.3848,2.3831,2.3838,2.3835,2.3839,2.3843,2.3842,2.3842,2.3842,0,2.2966,2.2995,2.3053,2.3122,2.3169,2.3226,2.3285,2.331,2.3384,2.3427,2.3492,2.3535,2.3621,2.3686,2.3756,2.3799,2.3832,2.384,2.3847,2.3832,2.3809,2.3821,2.3811,2.3839,2.384,2.384,2.384,2.384,2.2963,2.2999,2.3069,2.3132,2.3182,2.3235,2.3275,2.3328,2.3383,2.3458,2.3491,2.3556,2.3623,2.3721,2.3763,2.3814,2.3822,2.3832,2.3835,2.3837,2.3833,2.3799,2.3827,2.3827,2.3827,2.3827,2.3827,0,2.2975,2.3022,2.3079,2.3159,2.3208,2.3235,2.33,2.3339,2.3396,2.3455,2.3509,2.3583,2.3645,2.371,2.3776,2.3804,2.3821,2.3819,2.3818,2.3827,2.3822,2.3809,2.3804,2.3804,2.3804,2.3804,2.3804,2.3804,2.2986,2.3048,2.3084,2.317,2.3218,2.3283,2.3317,2.3366,2.3413,2.3493,2.3546,2.3588,2.3649,2.3719,2.3777,2.3795,2.3817,2.3811,2.3832,2.3826,2.3828,2.3829,2.3818,2.3815,2.3815,2.3834,2.3834,2.3834]}]]